Regional Weather Roundup
Issued by NWS

Home | Current Version | Previous Version | Graphics & Text | Print | Product List | Glossary On
Versions: 1 2 3 4 5 6 7 8 9 10 11 12 13 14 15 16 17 18 19 20 21 22 23 24 25 26 27 28 29 30 31 32 33 34 35 36 37 38 39 40 41 42 43 44 45 46 47 48 49 50
000
ASUS43 KLOT 040008
RWRIL

ILLINOIS REGIONAL WEATHER ROUNDUP
NATIONAL WEATHER SERVICE CHICAGO/ROMEOVILLE IL
600 PM CST SAT DEC 03 2016

NOTE: "FAIR" INDICATES FEW OR NO CLOUDS BELOW 12,000 FEET WITH NO
SIGNIFICANT WEATHER AND/OR OBSTRUCTIONS TO VISIBILITY.

* THESE STATIONS ARE NOT UNDER NWS QUALITY CONTROL. THEY ALSO MAY NOT
  REPORT WEATHER SUCH AS PRECIPITATION OR FOG.

ILZ001-002-007-009-015-016-024-040100-
NORTHWEST ILLINOIS

CITY           SKY/WX    TMP DP  RH WIND       PRES   REMARKS
MOLINE         CLOUDY    33  26  75 E5        30.27F WCI  29
6HR MIN TEMP:  33; 6HR MAX TEMP:  40;

STERLING*      CLOUDY    34  28  79 S3        30.29F
SAVANNA*       CLOUDY    34  30  83 CALM      30.27F
$$

ILZ003-004-008-010-011-017-018-040100-
NORTH CENTRAL ILLINOIS

CITY           SKY/WX    TMP DP  RH WIND       PRES   REMARKS
ROCKFORD       CLOUDY    34  25  69 CALM      30.30F
6HR MIN TEMP:  34; 6HR MAX TEMP:  37;

FREEPORT*      CLOUDY    32  28  86 CALM      30.30S
ROCHELLE*      CLOUDY    34  30  85 CALM      30.29F
DE KALB*       CLOUDY    32  28  86 S3        30.29F
$$

ILZ005-006-012>014-019>023-040100-
NORTHEAST ILLINOIS

CITY           SKY/WX    TMP DP  RH WIND       PRES   REMARKS
CHICAGO-OHARE  CLOUDY    30  24  78 CALM      30.30S
6HR MIN TEMP:  30; 6HR MAX TEMP:  34;

CHICAGO-MIDWAY PTCLDY    33  23  66 S3        30.31S
6HR MIN TEMP:  32; 6HR MAX TEMP:  35;

AURORA         CLOUDY    33  27  78 CALM      30.30S
6HR MIN TEMP:  33; 6HR MAX TEMP:  36;

LANSING*       CLEAR     30  27  87 SW3       30.32S
JOLIET*        CLEAR     29  26  89 CALM      30.32S
WAUKEGAN       CLOUDY    32  24  72 CALM      30.30S
6HR MIN TEMP:  31; 6HR MAX TEMP:  33;

DUPAGE AIRPORT CLOUDY    32  25  75 CALM      30.29S
6HR MIN TEMP:  31; 6HR MAX TEMP:  35;

KANKAKEE*      PTCLDY    31  26  83 CALM      30.33S
WHEELING       CLOUDY    30  24  78 CALM      30.31F
6HR MIN TEMP:  29; 6HR MAX TEMP:  33;

MORRIS*        CLEAR     30  27  87 CALM      30.31S
ROMEOVILLE*    PTCLDY    30  27  88 S5        30.30F WCI  26
NORTHERLY ISL    N/A     34  24  67 W5          N/A  WCI  30
$$

LMZ740>746-040100-
SOUTHERN LAKE MICHIGAN

STATION/POSITION SKY/WX   TEMP    WIND        PRES    VSBY  WAVE
                          AIR SEA DIR/SP/G                  HT/PER
                          (F)     (DEG/KT/KT) (MB)    (MI)  (FT/S)
SOUTHERN BUOY              35 48  270/ 10/ 14 1026.1F         1/ 3
HARRISON CRIB              35     310/  6/  8   N/A
BURNHAM HARBOR             34     220/  2/  5   N/A
CALUMET HARBOR             33     220/  2/  3 1025.7F
BURNS HARBOR               35     260/  6/  9 1026.8F
MICHIGAN CITY              34     180/  7/  8   N/A
$$

ILZ025>027-034>036-040-047-049-050-058-095>099-040100-
WEST-CENTRAL ILLINOIS

CITY           SKY/WX    TMP DP  RH WIND       PRES   REMARKS
QUINCY         CLOUDY    39  33  79 E6        30.25S WCI  35
GALESBURG*     CLOUDY    34  28  79 E5        30.27F WCI  30
MACOMB*        CLOUDY    35  32  88 E7        30.29F WCI  29
JACKSONVILLE*  CLOUDY    38  33  84 E9        30.27F WCI  31
PITTSFIELD*    CLOUDY    39  33  79 E5        30.27F
$$

ILZ028>032-037-038-041>044-048-051>054-059>061-040100-
CENTRAL ILLINOIS

CITY           SKY/WX    TMP DP  RH WIND       PRES   REMARKS
PONTIAC        CLOUDY    33  31  94 CALM      30.33R
BLOOMINGTON    MOCLDY    30  28  92 E7        30.31S WCI  23
DECATUR        CLOUDY    36  31  82 E7        30.31R WCI  30
PEORIA         PTCLDY    34  27  75 E5        30.30S WCI  30
6HR MIN TEMP:  33; 6HR MAX TEMP:  38;

LACON*         PTCLDY    32  26  78 E5        30.30S WCI  27
LINCOLN*       CLOUDY    35  31  85 E6        30.31R WCI  30
SPRINGFIELD    CLOUDY    38  31  76 E8        30.30S WCI  32
6HR MIN TEMP:  37; 6HR MAX TEMP:  43;

TAYLORVILLE    PTCLDY    36  32  85 E5        30.30S WCI  32
6HR MIN TEMP:  36; 6HR MAX TEMP:  41;

$$

ILZ033-039-045-046-055>057-062-063-040100-
EAST-CENTRAL ILLINOIS

CITY           SKY/WX    TMP DP  RH WIND       PRES   REMARKS
CHAMPAIGN      PTCLDY    33  27  78 NE6       30.32R WCI  28
RANTOUL*       MOCLDY    34  29  80 NE7       30.32S WCI  28
MATTOON        CLOUDY    34  29  82 NE5       30.30R WCI  30
PARIS*         CLOUDY    34  30  84 CALM      30.33R
$$

ILZ079-100>102-040100-
SOUTHWEST ILLINOIS

CITY           SKY/WX    TMP DP  RH WIND       PRES   REMARKS
ALTON          CLOUDY    37  32  81 CALM      30.28S
BELLEVILLE     CLOUDY    40  35  83 E3        30.27S
CAHOKIA*       CLOUDY    41  32  70 SE3       30.28S
SPARTA*        CLOUDY    39  33  78 E3        30.29S
$$

ILZ064>066-069>071-074>076-080>082-084>086-088>090-092>094-040100-
SOUTH-CENTRAL ILLINOIS

CITY           SKY/WX    TMP DP  RH WIND       PRES   REMARKS
CARBONDALE     CLOUDY    42  33  70 E6        30.29R
6HR MIN TEMP:  42; 6HR MAX TEMP:  44;

CAIRO*         CLOUDY    42  32  68 NE6       30.28S
EFFINGHAM*     CLOUDY    38  33  80 CALM      30.32R
MARION         CLOUDY    43  32  65 E6        30.30R
CENTRALIA*     PTCLDY    41  33  75 CALM      30.29R
SALEM*         CLOUDY    41  32  70 CALM      30.29S
METROPOLIS*    CLOUDY    42  32  68 CALM      30.29S
$$

ILZ067-068-072-073-078-083-087-091-040100-
SOUTHEAST ILLINOIS

CITY           SKY/WX    TMP DP  RH WIND       PRES   REMARKS
LAWRENCEVILLE  CLOUDY    39  31  72 NE6       30.31S WCI  35
FLORA*         CLOUDY    42  35  75 E5        30.31R
FAIRFIELD*     CLOUDY    40  33  77 CALM      30.29S
HARRISBURG*    PTCLDY    40  34  78 CALM      30.30S
ROBINSON*      CLOUDY    37  32  83 NE5       30.32F WCI  33
CARMI*         CLOUDY    39  34  84 NE5       30.30R
$$

ABBREVIATIONS USED IN REMARKS
   TC - TEMPERATURE IN CELSIUS
  WCI - WIND CHILL INDEX
   HX - HEAT INDEX
  VSB - VISIBILITY
$$




USA.gov is the U.S. government's official web portal to all federal, state and local government web resources and services.